Stations météo

Publicité
Rodez, France (7552): Température de l'air & dewpoint: 21.06.2019 12:00:00 - 27.06.2019 12:00:00 (CEST)Rodez, France (7552): Température de l'air 5cm: 21.06.2019 12:00:00 - 27.06.2019 12:00:00 (CEST)Rodez, France (7552): Vitesse du vent & gusts: 21.06.2019 12:00:00 - 27.06.2019 12:00:00 (CEST)Rodez, France (7552): Direction du vent: 21.06.2019 12:00:00 - 27.06.2019 12:00:00 (CEST)Rodez, France (7552): reduced air pressure: 21.06.2019 12:00:00 - 27.06.2019 12:00:00 (CEST)Rodez, France (7552): visibility: 21.06.2019 12:00:00 - 27.06.2019 12:00:00 (CEST)Rodez, France (7552): Ensoleillement: 21.06.2019 12:00:00 - 27.06.2019 12:00:00 (CEST)Rodez, France (7552): Quantités de précipitations: 21.06.2019 12:00:00 - 27.06.2019 12:00:00 (CEST)
Date & Time tt [°C] td [°C] tt 5cm [°C] ff [km/h] ff [knt] fx [km/h] fx [knt] dd ppp [hPa] vv [km] sd [min] rr [mm]
27.06.2019 12:00:00 34,7 11,2 39,9 9 5 19 11 E 1017,7 19 60 0,0
27.06.2019 11:00:00 32,9 12,0 36,2 10 5 17 9 E 1018,1 47 60 0,0
27.06.2019 10:00:00 30,2 12,6 30,9 9 5 16 8 ENE 1018,5 19 60 0,0
27.06.2019 09:00:00 26,7 12,7 25,5 8 4 20 11 E 1019,2 20 60 0,0
27.06.2019 08:00:00 24,0 11,7 20,8 12 6 20 11 ENE 1019,5 20 60 0,0
27.06.2019 07:00:00 22,2 11,0 20,3 8 4 16 8 E 1019,8 45 16 0,0
27.06.2019 06:00:00 22,5 9,3 20,2 12 6 21 11 NE 1019,6 51 0 0,0
27.06.2019 05:00:00 24,2 6,9 20,7 11 6 24 13 NE 1019,2 55 0 0,0
27.06.2019 04:00:00 25,2 6,9 23,1 16 9 26 14 E 1018,9 60 0 0,0
27.06.2019 03:00:00 25,5 7,6 23,6 16 9 34 18 ESE 1019,0 60 0 0,0
27.06.2019 02:00:00 25,8 8,7 24,2 23 12 43 23 ESE 1019,1 60 0 0,0
27.06.2019 01:00:00 26,1 9,9 24,5 21 11 41 22 ESE 1019,3 60 0 0,0
27.06.2019 00:00:00 26,1 9,4 24,5 23 12 35 19 SE 1019,1 60 0 0,0
26.06.2019 23:00:00 27,4 9,2 25,9 20 11 35 19 ESE 1018,9 60 0 0,0
26.06.2019 22:00:00 28,4 9,1 26,7 22 12 40 22 ESE 1017,9 60 13 0,0
26.06.2019 21:00:00 29,3 13,1 28,4 21 12 45 24 ESE 1017,2 57 60 0,0
26.06.2019 20:00:00 31,3 13,1 31,8 29 16 53 29 ESE 1016,6 31 60 0,0
26.06.2019 19:00:00 32,8 12,4 34,7 37 20 56 30 SE 1015,9 19 60 0,0
26.06.2019 18:00:00 33,9 11,7 36,7 38 21 61 33 ESE 1015,8 13 60 0,0
26.06.2019 17:00:00 34,3 12,6 37,9 34 18 63 34 ESE 1015,6 13 60 0,0
26.06.2019 16:00:00 34,8 11,9 39,1 38 20 56 31 SE 1016,2 14 60 0,0
26.06.2019 15:00:00 34,7 11,8 38,0 34 18 55 30 SE 1016,5 12 60 0,0
26.06.2019 14:00:00 33,4 12,9 37,8 36 20 55 30 ESE 1017,1 12 60 0,0
26.06.2019 13:00:00 32,9 13,0 36,2 38 20 59 32 ESE 1017,5 12 60 0,0
26.06.2019 12:00:00 31,7 11,0 33,9 37 20 58 32 ESE 1017,9 13 60 0,0
26.06.2019 11:00:00 30,0 10,5 31,9 34 18 54 29 ESE 1018,4 13 60 0,0
26.06.2019 10:00:00 28,5 10,7 29,0 32 18 53 29 ESE 1018,5 13 60 0,0
26.06.2019 09:00:00 26,5 10,2 25,9 33 18 53 29 ESE 1018,4 14 60 0,0
26.06.2019 08:00:00 24,6 10,1 22,6 33 18 56 30 SE 1018,2 14 60 0,0
26.06.2019 07:00:00 23,1 10,5 21,8 38 20 58 32 ESE 1017,8 8 9 0,0
26.06.2019 06:00:00 23,2 9,6 21,7 36 20 49 26 ESE 1017,6 60 0 0,0
26.06.2019 05:00:00 23,6 8,4 22,1 35 19 54 29 ESE 1017,2 60 0 0,0
26.06.2019 04:00:00 23,6 8,4 22,2 31 17 48 26 ESE 1017,1 60 0 0,0
26.06.2019 03:00:00 24,1 8,5 22,6 32 18 54 29 ESE 1016,8 60 0 0,0
26.06.2019 02:00:00 24,1 9,3 21,0 27 15 49 27 ESE 1017,4 60 0 0,0
26.06.2019 01:00:00 23,1 11,2 20,8 14 8 33 18 E 1018,1 60 0 0,0
26.06.2019 00:00:00 23,8 11,1 21,4 14 8 35 19 E 1018,1 60 0 0,0
25.06.2019 23:00:00 24,2 10,1 21,3 22 12 36 20 ESE 1017,8 60 0 0,0
25.06.2019 22:00:00 25,0 8,5 23,4 15 8 34 18 E 1017,4 18 9 0,0
25.06.2019 21:00:00 26,4 7,9 25,5 22 12 52 28 ESE 1017,1 54 57 0,0
25.06.2019 20:00:00 27,7 8,0 28,0 25 13 45 25 SE 1016,7 29 58 0,0
25.06.2019 19:00:00 29,9 5,2 31,0 28 15 49 27 ESE 1016,0 20 60 0,0
25.06.2019 18:00:00 31,2 11,1 33,9 31 17 46 25 ESE 1015,5 21 57 0,0
25.06.2019 17:00:00 30,9 13,2 34,2 23 12 50 27 ESE 1015,4 21 60 0,0
25.06.2019 16:00:00 30,5 11,9 33,6 25 13 45 25 SSE 1015,5 23 36 0,0
25.06.2019 15:00:00 30,4 12,8 34,2 22 12 47 26 SE 1015,7 25 46 0,0
25.06.2019 14:00:00 29,8 13,1 31,8 25 13 42 23 SE 1015,8 27 48 0,0
25.06.2019 13:00:00 28,2 10,4 30,8 26 14 48 26 SE 1016,2 30 27 0,0
25.06.2019 12:00:00 27,3 11,7 29,5 28 15 44 24 SE 1016,4 32 48 0,0
25.06.2019 11:00:00 25,8 11,5 27,5 23 12 40 21 SE 1016,7 36 47 0,0
25.06.2019 10:00:00 24,7 10,9 25,6 16 9 27 15 ESE 1017,0 41 53 0,0
25.06.2019 09:00:00 22,5 11,9 21,0 14 8 23 12 E 1017,3 45 60 0,0
25.06.2019 08:00:00 20,2 11,1 17,7 11 6 19 10 E 1017,5 59 31 0,0
25.06.2019 07:00:00 18,9 10,2 15,6 13 7 20 11 ESE 1017,5 59 3 0,0
25.06.2019 06:00:00 19,5 9,1 17,8 13 7 25 14 E 1016,8 60 0 0,0
25.06.2019 05:00:00 20,5 8,8 18,8 14 8 30 16 E 1015,9 60 0 0,0
25.06.2019 04:00:00 20,7 8,7 19,1 16 9 34 18 ESE 1015,7 60 0 0,0
25.06.2019 03:00:00 20,8 9,7 19,1 16 9 36 19 E 1015,4 60 0 0,0
25.06.2019 02:00:00 21,3 10,1 20,0 23 12 48 26 ESE 1014,9 60 0 0,0
25.06.2019 01:00:00 22,2 10,0 21,0 27 14 52 28 ESE 1014,6 60 0 0,0
25.06.2019 00:00:00 22,6 10,7 21,5 29 16 48 26 ESE 1014,3 60 0 0,0
24.06.2019 23:00:00 22,5 10,6 21,2 26 14 43 23 ESE 1014,5 60 0 0,0
24.06.2019 22:00:00 23,3 10,0 21,6 24 13 39 21 ESE 1014,1 60 0 0,0
24.06.2019 21:00:00 24,2 10,8 23,3 28 15 56 31 ESE 1013,8 59 6 0,0
24.06.2019 20:00:00 25,7 11,1 25,2 23 12 50 27 ESE 1013,7 39 25 0,0
24.06.2019 19:00:00 27,2 10,8 27,8 25 13 43 23 SE 1013,8 52 42 0,0
24.06.2019 18:00:00 27,4 10,6 28,7 25 13 45 24 SE 1013,6 34 36 0,0
24.06.2019 17:00:00 27,6 12,0 28,8 26 14 43 23 SE 1013,2 36 4 0,0
24.06.2019 16:00:00 27,3 13,6 29,1 26 14 51 28 SE 1013,1 31 20 0,0
24.06.2019 15:00:00 28,0 12,8 30,4 25 13 53 29 SE 1012,8 25 10 0,0
24.06.2019 14:00:00 28,5 11,5 31,9 32 17 49 26 SE 1012,5 22 56 0,0
24.06.2019 13:00:00 28,2 11,7 31,2 29 16 54 29 SE 1012,5 24 57 0,0
24.06.2019 12:00:00 27,9 11,9 28,5 29 15 54 29 ESE 1012,4 28 60 0,0
24.06.2019 11:00:00 25,7 11,5 25,1 27 14 40 22 ESE 1012,7 33 23 0,0
24.06.2019 10:00:00 23,5 11,5 23,0 26 14 42 23 ESE 1013,4 33 5 0,0
24.06.2019 09:00:00 22,4 11,8 21,1 18 10 30 16 E 1013,7 50 25 0,0
24.06.2019 08:00:00 21,4 10,8 18,9 19 11 36 19 ESE 1013,9 47 26 0,0
24.06.2019 07:00:00 20,0 10,7 15,7 16 9 26 14 ESE 1014,1 58 0 0,0
24.06.2019 06:00:00 19,1 11,9 15,7 8 4 21 11 E 1013,8 60 0 0,0
24.06.2019 05:00:00 18,8 13,2 16,8 11 6 16 9 E 1014,2 53 0 0,0
24.06.2019 04:00:00 18,5 13,6 17,0 14 8 19 10 ENE 1014,6 48 0 0,0
24.06.2019 03:00:00 19,6 13,3 17,3 10 5 13 7 E 1015,1 58 0 0,0
24.06.2019 02:00:00 19,9 13,8 18,4 8 4 16 9 ESE 1015,3 56 0 0,0
24.06.2019 01:00:00 20,5 13,7 16,6 9 5 23 13 E 1015,3 60 0 0,0
24.06.2019 00:00:00 19,7 13,6 15,0 11 6 16 8 SE 1015,4 60 0 0,0
23.06.2019 23:00:00 22,1 14,0 18,0 8 4 19 11 ESE 1014,6 60 0 0,0
23.06.2019 22:00:00 22,5 14,3 20,1 15 8 19 11 SE 1013,6 60 12 0,0
23.06.2019 21:00:00 26,0 14,1 25,0 10 6 16 9 ESE 1012,4 60 44 0,0
23.06.2019 20:00:00 27,3 14,0 27,3 8 5 15 8 E 1012,1 60 48 0,0
23.06.2019 19:00:00 28,3 13,4 30,9 9 5 18 10 ESE 1011,8 46 54 0,0
23.06.2019 18:00:00 28,5 9,7 32,4 11 6 21 11 ESE 1011,7 41 49 0,0
23.06.2019 17:00:00 28,9 9,6 31,5 11 6 19 11 SSE 1011,9 56 35 0,0
23.06.2019 16:00:00 28,1 8,9 30,9 11 6 21 11 SSE 1012,0 60 20 0,0
23.06.2019 15:00:00 27,7 10,8 32,1 15 8 24 13 SSE 1012,1 42 36 0,0
23.06.2019 14:00:00 27,6 11,2 31,2 9 5 19 11 ESE 1012,1 57 33 0,0
23.06.2019 13:00:00 27,0 12,6 31,3 9 5 19 10 SSE 1012,2 60 49 0,0
23.06.2019 12:00:00 25,7 11,5 28,3 11 6 24 13 SE 1012,4 38 50 0,0
23.06.2019 11:00:00 24,6 12,5 27,8 14 8 24 13 SE 1012,6 46 60 0,0
23.06.2019 10:00:00 21,7 13,6 22,4 10 5 20 11 ESE 1013,0 52 60 0,0
23.06.2019 09:00:00 18,9 13,7 20,1 9 5 15 8 E 1013,4 58 60 0,0
23.06.2019 08:00:00 17,1 13,0 12,3 4 2 10 5 E 1013,6 40 60 0,0
23.06.2019 07:00:00 12,9 11,5 7,9 8 4 9 5 SE 1014,7 32 29 0,0
23.06.2019 06:00:00 12,2 11,6 7,5 4 2 11 6 SE 1014,8 37 0 0,0
23.06.2019 05:00:00 13,4 11,8 7,5 6 4 10 5 E 1015,1 46 0 0,0
23.06.2019 04:00:00 13,0 11,2 9,5 7 4 11 6 ESE 1015,2 45 0 0,0
23.06.2019 03:00:00 12,8 11,5 8,2 11 6 16 9 SE 1015,3 43 0 0,0
23.06.2019 02:00:00 14,1 12,5 7,1 5 3 12 7 ESE 1015,4 33 0 0,0
23.06.2019 01:00:00 14,1 13,0 7,0 6 3 9 5 SE 1015,5 39 0 0,0
23.06.2019 00:00:00 14,1 12,5 9,2 5 3 8 4 SSE 1016,0 60 0 0,0
22.06.2019 23:00:00 16,6 12,9 10,4 5 3 11 6 NE 1015,5 60 0 0,0
22.06.2019 22:00:00 18,3 12,9 13,3 0 0 7 4 N 1015,1 60 11 0,0
22.06.2019 21:00:00 20,4 13,1 20,8 5 3 9 5 WNW 1014,3 60 60 0,0
22.06.2019 20:00:00 21,7 12,5 23,2 5 3 12 6 WSW 1013,9 59 46 0,0
22.06.2019 19:00:00 22,2 13,0 25,0 8 4 16 9 WSW 1013,8 60 48 0,0
22.06.2019 18:00:00 21,6 13,0 25,6 9 5 19 10 WSW 1014,2 60 45 0,0
22.06.2019 17:00:00 21,6 13,0 26,9 9 5 19 10 WNW 1014,5 30 60 0,0
22.06.2019 16:00:00 21,2 13,1 26,8 9 5 27 15 W 1015,2 58 58 0,0
22.06.2019 15:00:00 20,5 11,9 25,1 6 4 24 13 S 1015,6 60 58 0,0
22.06.2019 14:00:00 18,9 11,0 24,5 8 5 23 12 NW 1016,7 56 40 0,0
22.06.2019 13:00:00 18,4 12,2 21,9 13 7 24 13 WNW 1017,0 38 28 0,0
22.06.2019 12:00:00 18,3 11,8 20,8 8 4 16 9 SW 1017,1 57 37 0,0
22.06.2019 11:00:00 17,2 11,9 19,0 5 3 13 7 WSW 1017,2 60 30 0,0
22.06.2019 10:00:00 14,9 11,3 15,0 4 2 11 6 WSW 1018,2 49 1 0,0
22.06.2019 09:00:00 13,4 11,3 13,5 5 3 10 6 W 1018,5 60 0 0,0
22.06.2019 08:00:00 13,0 12,2 12,8 3 2 7 4 S 1018,5 33 0 0,0
22.06.2019 07:00:00 12,8 12,0 11,9 2 1 6 3 NNW 1018,2 52 0 0,0
22.06.2019 06:00:00 11,8 11,3 7,0 0 0 6 4 N 1018,4 60 0 0,0
22.06.2019 05:00:00 11,0 10,5 7,1 2 1 11 6 S 1018,8 11 0 0,0
22.06.2019 04:00:00 12,0 11,4 8,7 5 3 10 5 WSW 1019,0 55 0 0,0
22.06.2019 03:00:00 13,0 12,1 12,2 5 3 20 11 WSW 1019,0 45 0 0,0
22.06.2019 02:00:00 13,7 12,8 13,1 12 7 17 9 WSW 1019,3 52 0 0,0
22.06.2019 01:00:00 14,2 12,2 13,8 9 5 14 8 WSW 1019,3 60 0 0,0
22.06.2019 00:00:00 14,2 12,8 13,9 10 5 17 9 WNW 1019,4 60 0 0,0
21.06.2019 23:00:00 14,4 13,1 13,9 9 5 26 14 WSW 1019,3 60 0 0,0
21.06.2019 22:00:00 14,7 12,9 14,5 15 8 29 16 W 1018,7 60 2 0,0
21.06.2019 21:00:00 15,3 13,1 15,3 15 8 29 16 WNW 1018,1 60 0 0,0
21.06.2019 20:00:00 15,5 13,2 15,6 25 13 35 19 W 1017,6 55 11 0,0
21.06.2019 19:00:00 18,1 14,4 19,6 21 12 36 19 W 1016,4 43 30 0,0
21.06.2019 18:00:00 19,1 15,0 20,4 24 13 34 19 W 1015,8 58 14 0,0
21.06.2019 17:00:00 19,8 15,0 20,0 18 10 29 15 W 1015,5 43 30 0,0
21.06.2019 16:00:00 19,3 15,2 19,6 14 8 27 15 W 1015,6 60 3 0,0
21.06.2019 15:00:00 20,4 15,2 22,4 6 3 12 7 S 1015,6 60 18 0,0
21.06.2019 14:00:00 18,6 14,7 20,7 5 3 16 8 W 1016,3 60 6 0,0
21.06.2019 13:00:00 17,1 14,7 15,6 5 3 17 9 W 1016,8 59 0 0,6
21.06.2019 12:00:00 15,5 15,2 15,5 14 8 21 11 E 1016,4 7 0 1,9

tt = Température de l'air
td = dewpoint
tt 5cm = Température de l'air 5cm
ff = Vitesse du vent
fx = gusts
dd = Direction du vent
ppp = reduced air pressure
vv = visibility
sd = Ensoleillement
rr = Quantités de précipitations

stations d'obs. à proximité